Location: Chaves
(41.7330°N, 7.4670°W)
Time: 14:56:18
(UTC+00:00)

ISS - Visible Passes

Search period start: 03 December 2023 00:00
Search period end: 13 December 2023 00:00
Orbit: 415 x 417 km, 51.6° (Epoch: 03 December)

Date Brightness Start Highest point End Pass type
(mag) Time Alt. Az. Time Alt. Az. Time Alt. Az.
03 Dec -3.4 18:51:52 10° WNW 18:55:10 59° SW 18:55:28 56° S visible
04 Dec -3.9 18:03:19 10° NW 18:06:41 79° NE 18:09:51 11° ESE visible
04 Dec -0.5 19:41:32 10° WSW 19:42:49 12° SW 19:42:49 12° SW visible
05 Dec -1.2 18:52:01 10° W 18:54:37 21° SW 18:57:14 10° S visible
06 Dec -2.1 18:03:03 10° WNW 18:06:10 36° SW 18:09:16 10° SSE visible
08 Dec -0.4 18:03:34 10° W 18:05:18 13° SW 18:07:02 10° SSW visible
